| time (UTC) | temp C | wind direction | speed KPH | gust KPH | rain 1hr cm | rain 24hr cm | rain mn cm | humidity % | barometer mb |
| 20260507164128 | 18 | 135 | 12.9 | 32.2 | 0.00 | 0.00 | 0.00 | 25 | 1008.2 |
| 20260507163618 | 17 | 158 | 6.4 | 24.1 | 0.00 | 0.00 | 0.00 | 29 | 1008.4 |
| 20260507163107 | 17 | 225 | 14.5 | 24.1 | 0.00 | 0.00 | 0.00 | 30 | 1008.6 |
| 20260507162557 | 18 | 158 | 6.4 | 14.5 | 0.00 | 0.00 | 0.00 | 32 | 1008.5 |
| 20260507161538 | 17 | 135 | 4.8 | 17.7 | 0.00 | 0.00 | 0.00 | 31 | 1008.9 |
| 20260507160006 | 17 | 113 | 3.2 | 11.3 | 0.00 | 0.00 | 0.00 | 33 | 1008.9 |
| 20260507155457 | 17 | 135 | 8.0 | 12.9 | 0.00 | 0.00 | 0.00 | 32 | 1008.8 |
| 20260507154946 | 17 | 158 | 3.2 | 12.9 | 0.00 | 0.00 | 0.00 | 31 | 1008.8 |
| 20260507154436 | 17 | 90 | 1.6 | 11.3 | 0.00 | 0.00 | 0.00 | 32 | 1009.2 |
| 20260507153925 | 17 | 135 | 6.4 | 11.3 | 0.00 | 0.00 | 0.00 | 33 | 1009.4 |
| 20260507152906 | 17 | 90 | 6.4 | 17.7 | 0.00 | 0.00 | 0.00 | 33 | 1009.0 |
| 20260507152357 | 18 | 23 | 3.2 | 11.3 | 0.00 | 0.00 | 0.00 | 34 | 1009.0 |
| 20260507151845 | 16 | 90 | 3.2 | 14.5 | 0.00 | 0.00 | 0.00 | 34 | 1008.8 |
| 20260507151336 | 16 | 90 | 6.4 | 14.5 | 0.00 | 0.00 | 0.00 | 40 | 1009.1 |
| 20260507150826 | 17 | 135 | 3.2 | 12.9 | 0.00 | 0.00 | 0.00 | 38 | 1009.0 |
| 20260507150316 | 16 | 158 | 6.4 | 9.7 | 0.00 | 0.00 | 0.00 | 38 | 1009.0 |
| 20260507145805 | 16 | 225 | 3.2 | 9.7 | 0.00 | 0.00 | 0.00 | 41 | 1009.4 |
| 20260507145254 | 15 | 135 | 4.8 | 9.7 | 0.00 | 0.00 | 0.00 | 40 | 1009.4 |
| 20260507144745 | 15 | 90 | 4.8 | 11.3 | 0.00 | 0.00 | 0.00 | 40 | 1009.5 |
| 20260507144235 | 15 | 113 | 6.4 | 12.9 | 0.00 | 0.00 | 0.00 | 43 | 1009.2 |
| 20260507143724 | 14 | 68 | 8.0 | 12.9 | 0.00 | 0.00 | 0.00 | 43 | 1008.9 |
| 20260507143214 | 14 | 90 | 4.8 | 9.7 | 0.00 | 0.00 | 0.00 | 43 | 1008.9 |
| 20260507142704 | 14 | 180 | 3.2 | 9.7 | 0.00 | 0.00 | 0.00 | 44 | 1009.0 |
| 20260507142154 | 14 | 90 | 4.8 | 9.7 | 0.00 | 0.00 | 0.00 | 43 | 1009.0 |
| 20260507141645 | 15 | 113 | 3.2 | 12.9 | 0.00 | 0.00 | 0.00 | 45 | 1009.1 |
| 20260507141134 | 13 | 68 | 6.4 | 12.9 | 0.00 | 0.00 | 0.00 | 46 | 1009.1 |
| 20260507140624 | 13 | 90 | 3.2 | 14.5 | 0.00 | 0.00 | 0.00 | 47 | 1009.0 |
| 20260507140114 | 13 | 113 | 6.4 | 14.5 | 0.00 | 0.00 | 0.00 | 45 | 1009.4 |
| 20260507135054 | 13 | 90 | 3.2 | 11.3 | 0.00 | 0.00 | 0.00 | 45 | 1009.1 |
| 20260507134545 | 13 | 113 | 4.8 | 20.9 | 0.00 | 0.00 | 0.00 | 46 | 1009.0 |
| 20260507134033 | 13 | 113 | 3.2 | 20.9 | 0.00 | 0.00 | 0.00 | 46 | 1009.0 |
| 20260507133523 | 13 | 68 | 9.7 | 17.7 | 0.00 | 0.00 | 0.00 | 45 | 1008.7 |
| 20260507131443 | 13 | 135 | 8.0 | 17.7 | 0.00 | 0.00 | 0.00 | 44 | 1009.0 |
| 20260507125912 | 13 | 90 | 3.2 | 9.7 | 0.00 | 0.00 | 0.00 | 45 | 1009.2 |
| 20260507125402 | 13 | 90 | 3.2 | 9.7 | 0.00 | 0.00 | 0.00 | 43 | 1009.1 |
| 20260507124852 | 13 | 90 | 3.2 | 6.4 | 0.00 | 0.00 | 0.00 | 46 | 1008.9 |
| 20260507123832 | 13 | 135 | 0.0 | 6.4 | 0.00 | 0.00 | 0.00 | 43 | 1008.7 |
| 20260507123322 | 13 | 90 | 3.2 | 6.4 | 0.00 | 0.00 | 0.00 | 44 | 1008.3 |
| 20260507122812 | 14 | 23 | 3.2 | 11.3 | 0.00 | 0.00 | 0.00 | 43 | 1008.1 |
| 20260507122306 | 14 | 135 | 6.4 | 12.9 | 0.00 | 0.00 | 0.00 | 42 | 1008.3 |
| 20260507121751 | 14 | 158 | 6.4 | 14.5 | 0.00 | 0.00 | 0.00 | 41 | 1008.3 |
| 20260507121242 | 14 | 180 | 4.8 | 27.4 | 0.00 | 0.00 | 0.00 | 42 | 1008.4 |
| 20260507120731 | 15 | 180 | 11.3 | 29.0 | 0.00 | 0.00 | 0.00 | 40 | 1008.5 |
| 20260507120221 | 15 | 158 | 8.0 | 29.0 | 0.00 | 0.00 | 0.00 | 39 | 1008.0 |
| 20260507115711 | 15 | 158 | 12.9 | 24.1 | 0.00 | 0.00 | 0.00 | 39 | 1007.7 |
| 20260507114651 | 14 | 135 | 6.4 | 14.5 | 0.00 | 0.00 | 0.00 | 45 | 1007.9 |
| 20260507114144 | 14 | 113 | 3.2 | 11.3 | 0.00 | 0.00 | 0.00 | 48 | 1008.0 |
| 20260507113631 | 14 | 113 | 4.8 | 11.3 | 0.00 | 0.00 | 0.00 | 48 | 1008.2 |
| 20260507113120 | 14 | 135 | 3.2 | 6.4 | 0.00 | 0.00 | 0.00 | 52 | 1008.5 |
| 20260507112611 | 14 | 135 | 3.2 | 9.7 | 0.00 | 0.00 | 0.00 | 46 | 1008.3 |
| 20260507112100 | 14 | 135 | 3.2 | 9.7 | 0.00 | 0.00 | 0.00 | 52 | 1008.0 |
| 20260507111550 | 14 | 180 | 3.2 | 3.2 | 0.00 | 0.00 | 0.00 | 49 | 1008.2 |
| 20260507111040 | 14 | 203 | 3.2 | 6.4 | 0.00 | 0.00 | 0.00 | 52 | 1007.9 |
| 20260507110530 | 13 | 158 | 3.2 | 11.3 | 0.00 | 0.00 | 0.00 | 54 | 1006.9 |
| 20260507110020 | 14 | 135 | 1.6 | 17.7 | 0.00 | 0.00 | 0.00 | 53 | 1006.3 |
| 20260507105509 | 13 | 203 | 6.4 | 17.7 | 0.00 | 0.00 | 0.00 | 52 | 1006.4 |
| 20260507105000 | 13 | 180 | 6.4 | 17.7 | 0.00 | 0.00 | 0.00 | 54 | 1005.9 |
| 20260507104449 | 13 | 203 | 6.4 | 22.5 | 0.00 | 0.00 | 0.00 | 56 | 1005.8 |
| 20260507103940 | 13 | 203 | 6.4 | 22.5 | 0.00 | 0.00 | 0.00 | 61 | 1005.6 |
| 20260507103429 | 13 | 135 | 6.4 | 12.9 | 0.00 | 0.00 | 0.00 | 66 | 1005.6 |
| 20260507102919 | 13 | 225 | 6.4 | 12.9 | 0.00 | 0.00 | 0.00 | 64 | 1005.6 |
| 20260507102409 | 13 | 203 | 3.2 | 24.1 | 0.00 | 0.00 | 0.00 | 63 | 1005.8 |
| 20260507101859 | 14 | 158 | 8.0 | 25.7 | 0.00 | 0.00 | 0.00 | 59 | 1006.2 |
| 20260507101350 | 14 | 180 | 6.4 | 25.7 | 0.00 | 0.00 | 0.00 | 57 | 1006.3 |
| 20260507100839 | 14 | 180 | 14.5 | 25.7 | 0.00 | 0.00 | 0.00 | 55 | 1006.1 |
| 20260507100330 | 14 | 180 | 8.0 | 22.5 | 0.00 | 0.00 | 0.00 | 54 | 1005.3 |
| 20260507095819 | 14 | 180 | 6.4 | 17.7 | 0.00 | 0.00 | 0.00 | 53 | 1004.8 |
| 20260507095308 | 14 | 225 | 9.7 | 17.7 | 0.00 | 0.00 | 0.00 | 55 | 1005.1 |
| 20260507094758 | 13 | 180 | 6.4 | 25.7 | 0.00 | 0.00 | 0.00 | 59 | 1004.9 |
| 20260507094250 | 13 | 158 | 3.2 | 32.2 | 0.00 | 0.00 | 0.00 | 59 | 1005.8 |
| 20260507093739 | 14 | 203 | 6.4 | 32.2 | 0.00 | 0.00 | 0.00 | 58 | 1005.8 |
| 20260507093229 | 15 | 135 | 14.5 | 29.0 | 0.00 | 0.00 | 0.00 | 54 | 1005.0 |
| 20260507092718 | 15 | 158 | 12.9 | 29.0 | 0.00 | 0.00 | 0.00 | 50 | 1005.3 |
| 20260507091147 | 16 | 203 | 9.7 | 24.1 | 0.00 | 0.00 | 0.00 | 48 | 1006.2 |
| 20260507090638 | 16 | 158 | 6.4 | 17.7 | 0.00 | 0.00 | 0.00 | 49 | 1005.8 |
| 20260507085617 | 16 | 135 | 6.4 | 25.7 | 0.00 | 0.00 | 0.00 | 50 | 1005.3 |
| 20260507085108 | 16 | 180 | 9.7 | 27.4 | 0.00 | 0.00 | 0.00 | 50 | 1005.0 |
| 20260507084558 | 16 | 203 | 14.5 | 27.4 | 0.00 | 0.00 | 0.00 | 50 | 1004.4 |
| 20260507084047 | 16 | 135 | 9.7 | 20.9 | 0.00 | 0.00 | 0.00 | 51 | 1005.1 |
| 20260507083537 | 16 | 203 | 6.4 | 17.7 | 0.00 | 0.00 | 0.00 | 51 | 1005.3 |
| 20260507083028 | 16 | 158 | 11.3 | 22.5 | 0.00 | 0.00 | 0.00 | 51 | 1005.5 |
| 20260507082516 | 16 | 135 | 6.4 | 22.5 | 0.00 | 0.00 | 0.00 | 52 | 1005.3 |
| 20260507082006 | 16 | 158 | 6.4 | 22.5 | 0.00 | 0.00 | 0.00 | 52 | 1005.7 |
| 20260507080946 | 16 | 158 | 11.3 | 27.4 | 0.00 | 0.00 | 0.00 | 51 | 1006.2 |
| 20260507080435 | 16 | 158 | 4.8 | 24.1 | 0.00 | 0.00 | 0.00 | 51 | 1005.9 |
| 20260507075416 | 17 | 158 | 6.4 | 33.8 | 0.00 | 0.00 | 0.00 | 49 | 1005.9 |
| 20260507074906 | 17 | 135 | 12.9 | 43.5 | 0.00 | 0.00 | 0.00 | 49 | 1006.1 |
| 20260507074356 | 17 | 158 | 16.1 | 43.5 | 0.00 | 0.00 | 0.00 | 48 | 1005.4 |
| 20260507073846 | 17 | 158 | 16.1 | 35.4 | 0.00 | 0.00 | 0.00 | 47 | 1005.8 |
| 20260507073335 | 17 | 180 | 9.7 | 43.5 | 0.00 | 0.00 | 0.00 | 47 | 1005.4 |
| 20260507072826 | 17 | 225 | 25.7 | 43.5 | 0.00 | 0.00 | 0.00 | 46 | 1005.6 |
| 20260507071805 | 17 | 135 | 29.0 | 43.5 | 0.00 | 0.00 | 0.00 | 46 | 1005.1 |
| 20260507071255 | 17 | 180 | 12.9 | 27.4 | 0.00 | 0.00 | 0.00 | 46 | 1005.2 |
| 20260507065725 | 17 | 158 | 17.7 | 43.5 | 0.00 | 0.00 | 0.00 | 45 | 1005.2 |
| 20260507065215 | 17 | 158 | 16.1 | 38.6 | 0.00 | 0.00 | 0.00 | 45 | 1005.0 |
| 20260507064707 | 17 | 225 | 17.7 | 38.6 | 0.00 | 0.00 | 0.00 | 45 | 1005.0 |
| 20260507064154 | 18 | 158 | 14.5 | 43.5 | 0.00 | 0.00 | 0.00 | 45 | 1005.0 |
| 20260507063644 | 18 | 135 | 16.1 | 43.5 | 0.00 | 0.00 | 0.00 | 44 | 1005.1 |
| 20260507063136 | 18 | 225 | 6.4 | 27.4 | 0.00 | 0.00 | 0.00 | 46 | 1005.2 |
| 20260507062624 | 18 | 225 | 14.5 | 25.7 | 0.00 | 0.00 | 0.00 | 46 | 1004.9 |
| 20260507061043 | 18 | 158 | 12.9 | 37.0 | 0.00 | 0.00 | 0.00 | 47 | 1004.5 |
| 20260507060534 | 18 | 158 | 20.9 | 37.0 | 0.00 | 0.00 | 0.00 | 47 | 1004.6 |
| 20260507055513 | 18 | 203 | 12.9 | 32.2 | 0.00 | 0.00 | 0.00 | 51 | 1004.8 |
| 20260507055003 | 18 | 180 | 12.9 | 32.2 | 0.00 | 0.00 | 0.00 | 51 | 1004.8 |
| 20260507054453 | 18 | 203 | 8.0 | 27.4 | 0.00 | 0.00 | 0.00 | 52 | 1004.5 |
| 20260507053942 | 18 | 135 | 16.1 | 32.2 | 0.00 | 0.00 | 0.00 | 52 | 1004.5 |
| 20260507053433 | 18 | 158 | 12.9 | 35.4 | 0.00 | 0.00 | 0.00 | 52 | 1004.4 |
| 20260507052923 | 18 | 180 | 12.9 | 35.4 | 0.00 | 0.00 | 0.00 | 52 | 1004.7 |
| 20260507052412 | 18 | 203 | 16.1 | 37.0 | 0.00 | 0.00 | 0.00 | 53 | 1004.5 |
| 20260507051903 | 18 | 158 | 6.4 | 37.0 | 0.00 | 0.00 | 0.00 | 54 | 1004.6 |
| 20260507051352 | 19 | 158 | 17.7 | 37.0 | 0.00 | 0.00 | 0.00 | 54 | 1004.1 |
| 20260507050842 | 19 | 203 | 19.3 | 37.0 | 0.00 | 0.00 | 0.00 | 54 | 1004.5 |
| 20260507050333 | 19 | 225 | 14.5 | 33.8 | 0.00 | 0.00 | 0.00 | 55 | 1004.5 |
| 20260507045823 | 19 | 135 | 14.5 | 33.8 | 0.00 | 0.00 | 0.00 | 55 | 1004.5 |
| 20260507045312 | 19 | 158 | 17.7 | 35.4 | 0.00 | 0.00 | 0.00 | 55 | 1003.8 |
| 20260507044803 | 20 | 203 | 9.7 | 37.0 | 0.00 | 0.00 | 0.00 | 57 | 1004.6 |
| 20260507044253 | 20 | 158 | 20.9 | 37.0 | 0.00 | 0.00 | 0.00 | 57 | 1004.1 |
| 20260507043233 | 20 | 180 | 12.9 | 29.0 | 0.00 | 0.00 | 0.00 | 65 | 1003.9 |
| 20260507042726 | 20 | 135 | 11.3 | 22.5 | 0.00 | 0.00 | 0.00 | 70 | 1003.8 |
| 20260507042211 | 20 | 180 | 9.7 | 24.1 | 0.00 | 0.00 | 0.00 | 73 | 1004.2 |
| 20260507041700 | 20 | 158 | 6.4 | 27.4 | 0.00 | 0.00 | 0.00 | 72 | 1004.5 |
| 20260507041151 | 20 | 135 | 11.3 | 27.4 | 0.00 | 0.00 | 0.00 | 72 | 1003.9 |
| 20260507040640 | 20 | 180 | 12.9 | 24.1 | 0.00 | 0.00 | 0.00 | 75 | 1004.0 |
| 20260507040130 | 20 | 135 | 11.3 | 17.7 | 0.00 | 0.00 | 0.00 | 77 | 1004.1 |
| 20260507035621 | 20 | 203 | 0.0 | 11.3 | 0.00 | 0.00 | 0.00 | 82 | 1004.0 |
| 20260507035110 | 19 | 315 | 4.8 | 14.5 | 0.00 | 0.00 | 0.00 | 85 | 1003.8 |
| 20260507033540 | 18 | 113 | 3.2 | 3.2 | 0.00 | 0.00 | 0.00 | 88 | 1003.9 |
| 20260507033030 | 18 | 270 | 0.0 | 3.2 | 0.00 | 0.00 | 0.00 | 88 | 1004.0 |
| 20260507032520 | 18 | 225 | 0.0 | 6.4 | 0.00 | 0.00 | 0.00 | 88 | 1003.7 |
| 20260507031459 | 18 | 158 | 3.2 | 6.4 | 0.00 | 0.00 | 0.00 | 87 | 1003.5 |
| 20260507030949 | 18 | 113 | 3.2 | 3.2 | 0.00 | 0.00 | 0.00 | 86 | 1003.2 |
| 20260507030440 | 19 | 135 | 3.2 | 9.7 | 0.00 | 0.00 | 0.00 | 86 | 1003.3 |
| 20260507025929 | 20 | 315 | 1.6 | 9.7 | 0.00 | 0.00 | 0.00 | 84 | 1003.3 |
| 20260507025418 | 20 | 338 | 4.8 | 6.4 | 0.00 | 0.00 | 0.00 | 83 | 1003.3 |
| 20260507024909 | 20 | 158 | 1.6 | 3.2 | 0.00 | 0.00 | 0.00 | 84 | 1003.5 |
| 20260507024359 | 20 | 158 | 1.6 | 3.2 | 0.00 | 0.00 | 0.00 | 83 | 1003.7 |
| 20260507023849 | 20 | 158 | 3.2 | 6.4 | 0.00 | 0.00 | 0.00 | 82 | 1003.7 |
| 20260507023339 | 20 | 135 | 3.2 | 9.7 | 0.00 | 0.00 | 0.00 | 82 | 1003.6 |
| 20260507022829 | 20 | 158 | 4.8 | 12.9 | 0.00 | 0.00 | 0.00 | 82 | 1003.6 |
| 20260507022318 | 20 | 158 | 4.8 | 12.9 | 0.00 | 0.00 | 0.00 | 83 | 1003.8 |
| 20260507021808 | 20 | 203 | 1.6 | 3.2 | 0.00 | 0.00 | 0.00 | 82 | 1003.3 |
| 20260507021257 | 20 | 203 | 0.0 | 6.4 | 0.00 | 0.00 | 0.00 | 81 | 1003.3 |
| 20260507020238 | 20 | 248 | 1.6 | 9.7 | 0.00 | 0.00 | 0.00 | 82 | 1003.6 |
| 20260507015728 | 21 | 248 | 3.2 | 14.5 | 0.00 | 0.00 | 0.00 | 80 | 1003.7 |
| 20260507015217 | 21 | 293 | 6.4 | 14.5 | 0.00 | 0.00 | 0.00 | 78 | 1003.6 |
| 20260507014157 | 22 | 338 | 3.2 | 9.7 | 0.00 | 0.00 | 0.00 | 73 | 1003.6 |
| 20260507013647 | 22 | 113 | 3.2 | 3.2 | 0.00 | 0.00 | 0.00 | 75 | 1003.6 |
| 20260507013137 | 21 | 180 | 0.0 | 3.2 | 0.00 | 0.00 | 0.00 | 78 | 1003.7 |
| 20260507012627 | 20 | 158 | 1.6 | 3.2 | 0.00 | 0.00 | 0.00 | 79 | 1003.4 |
| 20260507012117 | 21 | 135 | 3.2 | 6.4 | 0.00 | 0.00 | 0.00 | 77 | 1003.7 |
| 20260507011057 | 21 | 225 | 3.2 | 6.4 | 0.00 | 0.00 | 0.00 | 77 | 1003.2 |
| 20260507010547 | 21 | 203 | 3.2 | 6.4 | 0.00 | 0.00 | 0.00 | 79 | 1003.1 |
| 20260507010037 | 21 | 225 | 3.2 | 6.4 | 0.00 | 0.00 | 0.00 | 81 | 1003.0 |
| 20260507005526 | 21 | 225 | 3.2 | 6.4 | 0.00 | 0.00 | 0.00 | 81 | 1003.1 |
| 20260507005017 | 21 | 338 | 1.6 | 6.4 | 0.00 | 0.00 | 0.00 | 81 | 1003.1 |
| 20260507004506 | 21 | 338 | 3.2 | 6.4 | 0.00 | 0.00 | 0.00 | 80 | 1003.2 |
| 20260507003956 | 21 | 338 | 3.2 | 11.3 | 0.00 | 0.00 | 0.00 | 79 | 1002.9 |
| 20260507003446 | 21 | 338 | 6.4 | 12.9 | 0.00 | 0.00 | 0.00 | 78 | 1002.6 |
| 20260507002936 | 21 | 315 | 3.2 | 17.7 | 0.00 | 0.00 | 0.00 | 78 | 1002.8 |
| 20260507001915 | 22 | 338 | 12.9 | 22.5 | 0.00 | 0.00 | 0.00 | 75 | 1002.5 |
| 20260507001406 | 22 | 0 | 16.1 | 27.4 | 0.00 | 0.00 | 0.00 | 74 | 1002.4 |
| 20260507000856 | 22 | 338 | 16.1 | 27.4 | 0.00 | 0.00 | 0.00 | 73 | 1002.6 |
| 20260507000345 | 22 | 338 | 12.9 | 27.4 | 0.00 | 0.00 | 0.00 | 74 | 1002.5 |
| 20260506235835 | 22 | 0 | 9.7 | 22.5 | 0.00 | 0.00 | 0.00 | 74 | 1002.3 |
| 20260506234815 | 22 | 0 | 14.5 | 24.1 | 0.00 | 0.00 | 0.00 | 75 | 1002.0 |
| 20260506234304 | 23 | 0 | 12.9 | 27.4 | 0.00 | 0.00 | 0.00 | 74 | 1002.1 |
| 20260506233755 | 22 | 293 | 12.9 | 27.4 | 0.00 | 0.00 | 0.00 | 76 | 1002.3 |
| 20260506233244 | 22 | 338 | 12.9 | 27.4 | 0.00 | 0.00 | 0.00 | 77 | 1002.1 |
| 20260506232735 | 22 | 315 | 9.7 | 27.4 | 0.00 | 0.00 | 0.00 | 76 | 1002.1 |
| 20260506232226 | 22 | 338 | 8.0 | 22.5 | 0.00 | 0.00 | 0.00 | 77 | 1002.1 |
| 20260506231715 | 22 | 338 | 9.7 | 25.7 | 0.00 | 0.00 | 0.00 | 76 | 1001.9 |
| 20260506231204 | 22 | 338 | 14.5 | 25.7 | 0.00 | 0.00 | 0.00 | 76 | 1001.8 |
| 20260506230655 | 23 | 315 | 20.9 | 25.7 | 0.00 | 0.00 | 0.00 | 75 | 1001.9 |
| 20260506230143 | 23 | 0 | 12.9 | 25.7 | 0.00 | 0.00 | 0.00 | 76 | 1001.4 |
| 20260506225634 | 23 | 338 | 16.1 | 27.4 | 0.00 | 0.00 | 0.00 | 75 | 1001.3 |
| 20260506225125 | 22 | 0 | 12.9 | 27.4 | 0.00 | 0.00 | 0.00 | 76 | 1001.2 |
| 20260506224614 | 22 | 315 | 14.5 | 22.5 | 0.00 | 0.00 | 0.00 | 76 | 1000.8 |
| 20260506224104 | 22 | 338 | 16.1 | 22.5 | 0.00 | 0.00 | 0.00 | 76 | 1000.7 |
| 20260506223553 | 22 | 0 | 12.9 | 22.5 | 0.00 | 0.00 | 0.00 | 76 | 1000.7 |
| 20260506223044 | 22 | 338 | 11.3 | 22.5 | 0.00 | 0.00 | 0.00 | 76 | 1000.5 |
| 20260506222533 | 23 | 338 | 14.5 | 20.9 | 0.00 | 0.00 | 0.00 | 75 | 1000.2 |
| 20260506222023 | 23 | 0 | 11.3 | 17.7 | 0.00 | 0.00 | 0.00 | 75 | 1000.3 |
| 20260506221520 | 23 | 0 | 9.7 | 17.7 | 0.00 | 0.00 | 0.00 | 75 | 1000.1 |
| 20260506221003 | 23 | 338 | 11.3 | 20.9 | 0.00 | 0.00 | 0.00 | 74 | 1000.0 |
| 20260506220453 | 23 | 338 | 11.3 | 20.9 | 0.00 | 0.00 | 0.00 | 74 | 1000.1 |
| 20260506215942 | 23 | 338 | 11.3 | 20.9 | 0.00 | 0.00 | 0.00 | 74 | 999.9 |
| 20260506215432 | 23 | 338 | 12.9 | 20.9 | 0.00 | 0.00 | 0.00 | 73 | 1000.2 |
| 20260506214923 | 23 | 0 | 11.3 | 17.7 | 0.00 | 0.00 | 0.00 | 71 | 1000.0 |
| 20260506214412 | 24 | 45 | 9.7 | 24.1 | 0.00 | 0.00 | 0.00 | 70 | 999.7 |
| 20260506213902 | 24 | 0 | 16.1 | 24.1 | 0.00 | 0.00 | 0.00 | 70 | 999.9 |
| 20260506213351 | 24 | 0 | 11.3 | 17.7 | 0.00 | 0.00 | 0.00 | 70 | 1000.0 |
| 20260506212843 | 24 | 338 | 8.0 | 20.9 | 0.00 | 0.00 | 0.00 | 71 | 999.7 |
| 20260506212331 | 24 | 0 | 12.9 | 20.9 | 0.00 | 0.00 | 0.00 | 69 | 999.7 |
| 20260506211824 | 24 | 0 | 12.9 | 22.5 | 0.00 | 0.00 | 0.00 | 70 | 999.7 |
| 20260506210802 | 24 | 0 | 12.9 | 20.9 | 0.00 | 0.00 | 0.00 | 70 | 999.5 |
| 20260506210251 | 25 | 0 | 14.5 | 20.9 | 0.00 | 0.00 | 0.00 | 68 | 999.6 |
| 20260506205741 | 25 | 338 | 8.0 | 20.9 | 0.00 | 0.00 | 0.00 | 69 | 999.9 |
| 20260506205231 | 25 | 0 | 11.3 | 17.7 | 0.00 | 0.00 | 0.00 | 68 | 999.9 |
| 20260506204721 | 25 | 0 | 9.7 | 24.1 | 0.00 | 0.00 | 0.00 | 68 | 999.9 |
| 20260506204211 | 25 | 315 | 9.7 | 29.0 | 0.00 | 0.00 | 0.00 | 67 | 999.7 |
| 20260506203701 | 25 | 338 | 12.9 | 29.0 | 0.00 | 0.00 | 0.00 | 66 | 999.9 |
| 20260506203150 | 25 | 338 | 16.1 | 24.1 | 0.00 | 0.00 | 0.00 | 66 | 999.9 |
| 20260506202641 | 25 | 0 | 16.1 | 24.1 | 0.00 | 0.00 | 0.00 | 67 | 1000.1 |
| 20260506202131 | 25 | 0 | 11.3 | 24.1 | 0.00 | 0.00 | 0.00 | 66 | 999.9 |
| 20260506201620 | 25 | 338 | 16.1 | 24.1 | 0.00 | 0.00 | 0.00 | 65 | 1000.0 |
| 20260506201110 | 25 | 23 | 17.7 | 25.7 | 0.00 | 0.00 | 0.00 | 65 | 1000.2 |
| 20260506200600 | 25 | 338 | 11.3 | 25.7 | 0.00 | 0.00 | 0.00 | 66 | 1000.1 |
| 20260506200057 | 25 | 338 | 12.9 | 17.7 | 0.00 | 0.00 | 0.00 | 65 | 1000.3 |
| 20260506195541 | 25 | 315 | 12.9 | 20.9 | 0.00 | 0.00 | 0.00 | 66 | 1000.5 |
| 20260506195030 | 25 | 338 | 11.3 | 22.5 | 0.00 | 0.00 | 0.00 | 66 | 1000.3 |
| 20260506194519 | 25 | 315 | 9.7 | 22.5 | 0.00 | 0.00 | 0.00 | 65 | 1000.5 |
| 20260506194010 | 26 | 338 | 16.1 | 27.4 | 0.00 | 0.00 | 0.00 | 64 | 1000.3 |
| 20260506192950 | 25 | 0 | 16.1 | 25.7 | 0.00 | 0.00 | 0.00 | 66 | 1000.5 |
| 20260506191929 | 26 | 315 | 17.7 | 35.4 | 0.00 | 0.00 | 0.00 | 65 | 1000.9 |
| 20260506190909 | 26 | 338 | 17.7 | 33.8 | 0.00 | 0.00 | 0.00 | 65 | 1000.5 |
| 20260506190359 | 26 | 0 | 17.7 | 33.8 | 0.00 | 0.00 | 0.00 | 64 | 1000.7 |
| 20260506185848 | 26 | 338 | 16.1 | 29.0 | 0.00 | 0.00 | 0.00 | 65 | 1000.8 |
| 20260506185339 | 26 | 0 | 22.5 | 35.4 | 0.00 | 0.00 | 0.00 | 65 | 1000.7 |
| 20260506184828 | 25 | 0 | 20.9 | 37.0 | 0.00 | 0.00 | 0.00 | 65 | 1000.5 |
| 20260506184318 | 25 | 338 | 16.1 | 37.0 | 0.00 | 0.00 | 0.00 | 66 | 1000.9 |
| 20260506183808 | 26 | 0 | 22.5 | 32.2 | 0.00 | 0.00 | 0.00 | 65 | 1000.8 |
| 20260506183258 | 25 | 338 | 12.9 | 37.0 | 0.00 | 0.00 | 0.00 | 66 | 1001.0 |
| 20260506182237 | 25 | 338 | 16.1 | 37.0 | 0.00 | 0.00 | 0.00 | 66 | 1001.2 |
| 20260506181728 | 25 | 338 | 9.7 | 27.4 | 0.00 | 0.00 | 0.00 | 66 | 1001.0 |
| 20260506180708 | 25 | 338 | 12.9 | 20.9 | 0.00 | 0.00 | 0.00 | 66 | 1001.2 |
| 20260506180157 | 25 | 338 | 12.9 | 33.8 | 0.00 | 0.00 | 0.00 | 67 | 1001.0 |
| 20260506175137 | 26 | 338 | 20.9 | 32.2 | 0.00 | 0.00 | 0.00 | 64 | 1001.3 |
| 20260506174117 | 25 | 0 | 17.7 | 40.2 | 0.00 | 0.00 | 0.00 | 66 | 1001.7 |
| 20260506173608 | 25 | 338 | 17.7 | 25.7 | 0.00 | 0.00 | 0.00 | 67 | 1001.6 |
| 20260506173057 | 25 | 338 | 17.7 | 22.5 | 0.00 | 0.00 | 0.00 | 67 | 1001.7 |
| 20260506172548 | 25 | 338 | 12.9 | 25.7 | 0.00 | 0.00 | 0.00 | 68 | 1001.7 |
| 20260506172036 | 25 | 293 | 11.3 | 27.4 | 0.00 | 0.00 | 0.00 | 66 | 1001.7 |
| 20260506171526 | 25 | 338 | 12.9 | 27.4 | 0.00 | 0.00 | 0.00 | 65 | 1001.8 |
| 20260506170505 | 25 | 0 | 14.5 | 33.8 | 0.00 | 0.00 | 0.00 | 66 | 1001.9 |
| 20260506165955 | 25 | 23 | 16.1 | 29.0 | 0.00 | 0.00 | 0.00 | 65 | 1002.0 |
| 20260506164936 | 25 | 338 | 14.5 | 37.0 | 0.00 | 0.00 | 0.00 | 66 | 1002.4 |